N8351P K1U7-KANK

Flight info

Callsign N8351P
Flight time N/A
Altitude 17000
Route PUC OAB MTJ HBU
Aircraft PA24/L-SDGRY/S

Departure

Time 2026-05-07 00:05
Airport Bear Lake County Airport (K1U7)

Arrival

Time N/A
Airport Salida Airport - Harriet Alexander Field (KANK)
Time Latitude Longitude Altitude Speed Heading
2026-05-06 23:55 42.25267 -111.33763 5972 ft 0 kts 298°
2026-05-07 00:00 42.25262 -111.33779 5973 ft 5 kts 203°
2026-05-07 00:00 42.25226 -111.33766 5973 ft 4 kts 168°
2026-05-07 00:00 42.25215 -111.33766 5973 ft 3 kts 189°
2026-05-07 00:00 42.25207 -111.33798 5973 ft 4 kts 297°
2026-05-07 00:01 42.25219 -111.33833 5973 ft 4 kts 295°
2026-05-07 00:01 42.25239 -111.33891 5973 ft 9 kts 296°
2026-05-07 00:01 42.25270 -111.33980 5973 ft 11 kts 295°
2026-05-07 00:01 42.25305 -111.34083 5974 ft 13 kts 295°
2026-05-07 00:02 42.25343 -111.34193 5972 ft 13 kts 295°
2026-05-07 00:02 42.25385 -111.34309 5971 ft 14 kts 296°
2026-05-07 00:02 42.25429 -111.34433 5971 ft 15 kts 295°
2026-05-07 00:02 42.25474 -111.34564 5971 ft 15 kts 294°
2026-05-07 00:03 42.25515 -111.34682 5973 ft 10 kts 297°
2026-05-07 00:03 42.25527 -111.34734 5972 ft 6 kts 248°
2026-05-07 00:03 42.25481 -111.34752 5972 ft 9 kts 150°
2026-05-07 00:03 42.25429 -111.34634 5973 ft 33 kts 113°
2026-05-07 00:04 42.25245 -111.34110 5973 ft 86 kts 113°
2026-05-07 00:04 42.24987 -111.33335 6068 ft 94 kts 112°
2026-05-07 00:04 42.24730 -111.32534 6256 ft 91 kts 109°
2026-05-07 00:04 42.24513 -111.31740 6450 ft 90 kts 111°
2026-05-07 00:05 42.24149 -111.31062 6638 ft 93 kts 138°
2026-05-07 00:05 42.23595 -111.30601 6789 ft 93 kts 165°
2026-05-07 00:05 42.22995 -111.30320 6964 ft 91 kts 162°
2026-05-07 00:05 42.22416 -111.30254 7150 ft 85 kts 184°
2026-05-07 00:06 42.21829 -111.30178 7371 ft 81 kts 178°
2026-05-07 00:06 42.21254 -111.30105 7557 ft 81 kts 175°
2026-05-07 00:06 42.20673 -111.30000 7725 ft 88 kts 179°
2026-05-07 00:06 42.20079 -111.29912 7913 ft 85 kts 180°
2026-05-07 00:07 42.19467 -111.29802 8077 ft 90 kts 178°
2026-05-07 00:07 42.18857 -111.29675 8268 ft 91 kts 178°
2026-05-07 00:07 42.18255 -111.29564 8482 ft 86 kts 175°
2026-05-07 00:07 42.17644 -111.29440 8634 ft 88 kts 176°
2026-05-07 00:08 42.17019 -111.29320 8733 ft 94 kts 179°
2026-05-07 00:08 42.16369 -111.29180 8911 ft 91 kts 177°
2026-05-07 00:08 42.15736 -111.29029 9038 ft 95 kts 178°
2026-05-07 00:08 42.15054 -111.28897 9132 ft 101 kts 178°
2026-05-07 00:09 42.14339 -111.28746 9275 ft 105 kts 179°
2026-05-07 00:09 42.13623 -111.28596 9398 ft 106 kts 176°
2026-05-07 00:09 42.12858 -111.28419 9483 ft 115 kts 178°
2026-05-07 00:09 42.12078 -111.28249 9716 ft 108 kts 176°
2026-05-07 00:10 42.11322 -111.28075 9893 ft 112 kts 175°
2026-05-07 00:10 42.10560 -111.27897 10097 ft 109 kts 175°
2026-05-07 00:10 42.09797 -111.27723 10254 ft 114 kts 176°
2026-05-07 00:10 42.09018 -111.27555 10452 ft 114 kts 176°
2026-05-07 00:11 42.08230 -111.27390 10616 ft 114 kts 176°
2026-05-07 00:11 42.07445 -111.27215 10801 ft 115 kts 175°
2026-05-07 00:11 42.06643 -111.27036 10962 ft 117 kts 176°
2026-05-07 00:11 42.05840 -111.26863 11141 ft 118 kts 176°
2026-05-07 00:12 42.05030 -111.26691 11302 ft 117 kts 175°
2026-05-07 00:12 42.04225 -111.26513 11464 ft 119 kts 175°
2026-05-07 00:12 42.03401 -111.26336 11633 ft 119 kts 175°
2026-05-07 00:12 42.02914 -111.26230 11735 ft 120 kts 175°
2026-05-07 00:13 42.02250 -111.26082 11850 ft 122 kts 175°
2026-05-07 00:13 42.01412 -111.25900 12028 ft 121 kts 175°
2026-05-07 00:13 42.00571 -111.25722 12192 ft 123 kts 175°
2026-05-07 00:14 41.99729 -111.25536 12387 ft 123 kts 174°
2026-05-07 00:14 41.98872 -111.25349 12541 ft 125 kts 174°
2026-05-07 00:14 41.98009 -111.25156 12693 ft 126 kts 174°
2026-05-07 00:14 41.97143 -111.24971 12873 ft 127 kts 174°
2026-05-07 00:15 41.96263 -111.24781 13031 ft 129 kts 174°
2026-05-07 00:15 41.95376 -111.24592 13205 ft 130 kts 174°
2026-05-07 00:15 41.94482 -111.24401 13329 ft 130 kts 173°
2026-05-07 00:15 41.93601 -111.24199 13478 ft 131 kts 174°
2026-05-07 00:16 41.92683 -111.23997 13630 ft 132 kts 174°
2026-05-07 00:16 41.91782 -111.23804 13776 ft 134 kts 175°
2026-05-07 00:16 41.90864 -111.23605 13946 ft 134 kts 174°
2026-05-07 00:16 41.89935 -111.23409 14093 ft 136 kts 174°
2026-05-07 00:17 41.89004 -111.23208 14229 ft 136 kts 174°
2026-05-07 00:17 41.88067 -111.23006 14365 ft 136 kts 174°
2026-05-07 00:17 41.87135 -111.22802 14493 ft 136 kts 173°
2026-05-07 00:17 41.86196 -111.22596 14617 ft 137 kts 174°
2026-05-07 00:18 41.85254 -111.22392 14749 ft 138 kts 174°
2026-05-07 00:18 41.84304 -111.22188 14879 ft 138 kts 173°
2026-05-07 00:18 41.83354 -111.21980 15011 ft 139 kts 174°
2026-05-07 00:18 41.82403 -111.21779 15149 ft 138 kts 173°
2026-05-07 00:19 41.81457 -111.21580 15291 ft 137 kts 172°
2026-05-07 00:19 41.80510 -111.21369 15415 ft 137 kts 172°
2026-05-07 00:19 41.79592 -111.21162 15593 ft 133 kts 172°
2026-05-07 00:19 41.78672 -111.20960 15710 ft 134 kts 173°
2026-05-07 00:20 41.77762 -111.20765 15857 ft 132 kts 172°
2026-05-07 00:20 41.76854 -111.20569 15974 ft 133 kts 173°
2026-05-07 00:20 41.76252 -111.20443 16060 ft 132 kts 172°
2026-05-07 00:20 41.75343 -111.20249 16183 ft 132 kts 172°
2026-05-07 00:21 41.74438 -111.20054 16319 ft 132 kts 172°
2026-05-07 00:21 41.73528 -111.19859 16443 ft 132 kts 172°
2026-05-07 00:21 41.72631 -111.19664 16568 ft 131 kts 172°
2026-05-07 00:21 41.71726 -111.19469 16664 ft 133 kts 172°
2026-05-07 00:22 41.70814 -111.19275 16768 ft 133 kts 172°
2026-05-07 00:22 41.69893 -111.19075 16864 ft 135 kts 172°
2026-05-07 00:22 41.68951 -111.18875 16947 ft 138 kts 172°
2026-05-07 00:22 41.67996 -111.18674 17002 ft 142 kts 172°
2026-05-07 00:23 41.66992 -111.18463 17014 ft 150 kts 172°
2026-05-07 00:23 41.65935 -111.18234 17007 ft 158 kts 172°
2026-05-07 00:23 41.64832 -111.17995 17000 ft 164 kts 172°
2026-05-07 00:23 41.63694 -111.17749 16999 ft 167 kts 172°
2026-05-07 00:24 41.62538 -111.17498 17003 ft 168 kts 172°
2026-05-07 00:24 41.61374 -111.17247 17001 ft 171 kts 171°
2026-05-07 00:24 41.60193 -111.16991 16996 ft 172 kts 171°
2026-05-07 00:24 41.59015 -111.16738 17007 ft 172 kts 171°
2026-05-07 00:25 41.57827 -111.16481 17009 ft 174 kts 171°
2026-05-07 00:25 41.56630 -111.16221 17011 ft 174 kts 171°
2026-05-07 00:25 41.55434 -111.15965 17010 ft 174 kts 171°
2026-05-07 00:25 41.54235 -111.15710 17010 ft 175 kts 172°
2026-05-07 00:26 41.53034 -111.15457 17010 ft 175 kts 171°
2026-05-07 00:26 41.51834 -111.15197 17015 ft 175 kts 171°
2026-05-07 00:26 41.50634 -111.14939 17015 ft 175 kts 171°
2026-05-07 00:26 41.49431 -111.14680 17015 ft 175 kts 171°
2026-05-07 00:27 41.48231 -111.14420 17044 ft 175 kts 171°
2026-05-07 00:27 41.47028 -111.14165 17047 ft 175 kts 171°
2026-05-07 00:27 41.45826 -111.13909 17066 ft 175 kts 172°
2026-05-07 00:27 41.44622 -111.13650 17057 ft 175 kts 172°
2026-05-07 00:28 41.43423 -111.13398 17057 ft 174 kts 172°
2026-05-07 00:28 41.42227 -111.13145 17061 ft 174 kts 171°
2026-05-07 00:28 41.41032 -111.12889 17063 ft 174 kts 171°
2026-05-07 00:28 41.39840 -111.12631 17066 ft 173 kts 171°
2026-05-07 00:29 41.38649 -111.12371 17067 ft 173 kts 171°
2026-05-07 00:29 41.37474 -111.12125 17070 ft 173 kts 171°
2026-05-07 00:30 41.33887 -111.11363 17075 ft 174 kts 171°
2026-05-07 00:30 41.32710 -111.11111 17077 ft 174 kts 171°
2026-05-07 00:30 41.31516 -111.10859 17077 ft 174 kts 171°
2026-05-07 00:30 41.30325 -111.10602 17076 ft 173 kts 171°
2026-05-07 00:31 41.29133 -111.10349 17079 ft 173 kts 171°
2026-05-07 00:31 41.27943 -111.10098 17077 ft 173 kts 171°
2026-05-07 00:31 41.26752 -111.09846 17076 ft 173 kts 171°
2026-05-07 00:31 41.25564 -111.09592 17077 ft 173 kts 171°
2026-05-07 00:32 41.24375 -111.09342 17077 ft 173 kts 171°
2026-05-07 00:32 41.23188 -111.09091 17076 ft 172 kts 171°
2026-05-07 00:32 41.22005 -111.08840 17076 ft 172 kts 170°
2026-05-07 00:32 41.20820 -111.08584 17077 ft 173 kts 171°
2026-05-07 00:33 41.19632 -111.08329 17075 ft 173 kts 171°
2026-05-07 00:33 41.18448 -111.08077 17075 ft 172 kts 171°
2026-05-07 00:33 41.17265 -111.07827 17074 ft 172 kts 171°
2026-05-07 00:33 41.16077 -111.07580 17072 ft 173 kts 171°
2026-05-07 00:34 41.14887 -111.07334 17071 ft 173 kts 170°
2026-05-07 00:34 41.13702 -111.07078 17069 ft 172 kts 170°
2026-05-07 00:34 41.12518 -111.06821 17067 ft 173 kts 171°
2026-05-07 00:34 41.11331 -111.06572 17065 ft 173 kts 171°
2026-05-07 00:35 41.10144 -111.06327 17063 ft 173 kts 171°
2026-05-07 00:35 41.08959 -111.06075 17062 ft 173 kts 171°
2026-05-07 00:35 41.07771 -111.05822 17060 ft 173 kts 171°
2026-05-07 00:35 41.06595 -111.05571 17058 ft 173 kts 171°
2026-05-07 00:36 41.05387 -111.05318 17057 ft 173 kts 171°
2026-05-07 00:36 41.04207 -111.05070 17054 ft 175 kts 171°
2026-05-07 00:36 41.03004 -111.04816 17053 ft 175 kts 171°
2026-05-07 00:36 41.01804 -111.04564 17052 ft 175 kts 171°
2026-05-07 00:37 41.00603 -111.04308 17050 ft 175 kts 171°
2026-05-07 00:37 40.99399 -111.04052 17048 ft 175 kts 171°
2026-05-07 00:37 40.98192 -111.03803 17046 ft 175 kts 171°
2026-05-07 00:37 40.96972 -111.03543 17045 ft 175 kts 170°
2026-05-07 00:38 40.95782 -111.03292 17043 ft 176 kts 171°
2026-05-07 00:38 40.94574 -111.03039 17042 ft 176 kts 171°
2026-05-07 00:38 40.93363 -111.02785 17039 ft 176 kts 171°
2026-05-07 00:38 40.92150 -111.02531 17038 ft 176 kts 171°
2026-05-07 00:39 40.90940 -111.02273 17037 ft 176 kts 171°
2026-05-07 00:39 40.89726 -111.02018 17039 ft 177 kts 171°
2026-05-07 00:39 40.88513 -111.01765 17040 ft 177 kts 171°
2026-05-07 00:39 40.87297 -111.01511 17041 ft 177 kts 171°
2026-05-07 00:40 40.86083 -111.01255 17041 ft 177 kts 170°
2026-05-07 00:40 40.84868 -111.01000 17040 ft 176 kts 171°
2026-05-07 00:40 40.83658 -111.00752 17040 ft 176 kts 171°
2026-05-07 00:40 40.82453 -111.00495 17039 ft 175 kts 171°
2026-05-07 00:41 40.81264 -111.00251 17039 ft 171 kts 171°
2026-05-07 00:41 40.80084 -111.00001 17039 ft 172 kts 171°
2026-05-07 00:41 40.78905 -110.99746 17041 ft 173 kts 170°
2026-05-07 00:41 40.77716 -110.99497 17042 ft 173 kts 171°
2026-05-07 00:42 40.76525 -110.99250 17044 ft 174 kts 171°
2026-05-07 00:42 40.75328 -110.99001 17043 ft 174 kts 171°
2026-05-07 00:42 40.74335 -110.98793 17042 ft 174 kts 171°
2026-05-07 00:43 40.73834 -110.98689 17036 ft 174 kts 171°
2026-05-07 00:43 40.72633 -110.98439 17037 ft 176 kts 171°
2026-05-07 00:43 40.71420 -110.98188 17022 ft 177 kts 169°
2026-05-07 00:43 40.70201 -110.97928 17019 ft 178 kts 171°
2026-05-07 00:44 40.70128 -110.97913 17019 ft 178 kts 171°
2026-05-07 00:44 40.69489 -110.97781 17016 ft 177 kts 171°
2026-05-07 00:44 40.68282 -110.97527 17016 ft 175 kts 170°
2026-05-07 00:44 40.67094 -110.97281 17016 ft 175 kts 171°
2026-05-07 00:45 40.65895 -110.97027 17009 ft 174 kts 171°
2026-05-07 00:45 40.64704 -110.96777 17013 ft 173 kts 171°
2026-05-07 00:45 40.63514 -110.96534 17014 ft 173 kts 171°
2026-05-07 00:45 40.62328 -110.96289 17014 ft 172 kts 171°
2026-05-07 00:46 40.61149 -110.96041 17013 ft 171 kts 171°
2026-05-07 00:46 40.59968 -110.95799 17017 ft 172 kts 171°
2026-05-07 00:46 40.58781 -110.95550 17018 ft 174 kts 171°
2026-05-07 00:46 40.57585 -110.95298 17010 ft 174 kts 171°
2026-05-07 00:47 40.56383 -110.95047 17008 ft 175 kts 171°
2026-05-07 00:47 40.55177 -110.94795 17006 ft 175 kts 171°
2026-05-07 00:47 40.53974 -110.94547 17005 ft 175 kts 171°
2026-05-07 00:47 40.52774 -110.94302 17005 ft 175 kts 171°
2026-05-07 00:48 40.51572 -110.94051 17004 ft 175 kts 171°
2026-05-07 00:48 40.50367 -110.93801 16996 ft 175 kts 171°
2026-05-07 00:48 40.49169 -110.93555 16995 ft 173 kts 171°
2026-05-07 00:48 40.47985 -110.93311 16994 ft 172 kts 171°
2026-05-07 00:49 40.46803 -110.93059 16994 ft 173 kts 171°
2026-05-07 00:49 40.45618 -110.92815 16995 ft 171 kts 171°
2026-05-07 00:49 40.44443 -110.92575 16998 ft 171 kts 171°
2026-05-07 00:49 40.43258 -110.92331 16999 ft 173 kts 171°
2026-05-07 00:50 40.42068 -110.92075 16986 ft 174 kts 171°
2026-05-07 00:50 40.40872 -110.91828 16984 ft 175 kts 171°
2026-05-07 00:50 40.39671 -110.91579 16984 ft 174 kts 171°
2026-05-07 00:50 40.38475 -110.91331 16984 ft 173 kts 171°
2026-05-07 00:51 40.37304 -110.91095 16984 ft 173 kts 171°
2026-05-07 00:51 40.36107 -110.90846 16983 ft 175 kts 171°
2026-05-07 00:51 40.34903 -110.90606 16983 ft 175 kts 171°
2026-05-07 00:51 40.33701 -110.90351 16977 ft 174 kts 171°
2026-05-07 00:52 40.32511 -110.90098 16974 ft 173 kts 171°
2026-05-07 00:52 40.31325 -110.89854 16977 ft 172 kts 171°
2026-05-07 00:52 40.30146 -110.89619 16978 ft 171 kts 171°
2026-05-07 00:52 40.28966 -110.89373 16976 ft 172 kts 170°
2026-05-07 00:53 40.27790 -110.89125 16981 ft 172 kts 172°
2026-05-07 00:53 40.26600 -110.88886 16968 ft 172 kts 171°
2026-05-07 00:53 40.25424 -110.88648 16972 ft 171 kts 171°
2026-05-07 00:53 40.24252 -110.88398 16973 ft 171 kts 171°
2026-05-07 00:54 40.23077 -110.88154 16973 ft 171 kts 171°
2026-05-07 00:54 40.21898 -110.87911 16973 ft 171 kts 171°
2026-05-07 00:54 40.20719 -110.87670 16972 ft 172 kts 171°
2026-05-07 00:54 40.19543 -110.87433 16972 ft 171 kts 171°
2026-05-07 00:55 40.18364 -110.87188 16959 ft 172 kts 171°
2026-05-07 00:55 40.17178 -110.86943 16960 ft 173 kts 171°
2026-05-07 00:55 40.16006 -110.86701 16960 ft 173 kts 171°
2026-05-07 00:55 40.14809 -110.86457 16959 ft 170 kts 170°
2026-05-07 00:56 40.13653 -110.86218 16958 ft 170 kts 171°
2026-05-07 00:56 40.12479 -110.85975 16959 ft 171 kts 170°
2026-05-07 00:56 40.11296 -110.85730 16959 ft 173 kts 171°
2026-05-07 00:56 40.10107 -110.85494 16952 ft 174 kts 171°
2026-05-07 00:57 40.08909 -110.85244 16954 ft 174 kts 170°
2026-05-07 00:57 40.07713 -110.85007 16956 ft 174 kts 171°
2026-05-07 00:57 40.06511 -110.84757 16952 ft 176 kts 171°
2026-05-07 00:57 40.05291 -110.84494 16954 ft 178 kts 170°
2026-05-07 00:58 40.04074 -110.84249 16954 ft 177 kts 171°
2026-05-07 00:58 40.02862 -110.84013 16953 ft 174 kts 171°
2026-05-07 00:58 40.01660 -110.83765 16948 ft 175 kts 170°
2026-05-07 00:58 40.00464 -110.83518 16949 ft 174 kts 171°
2026-05-07 00:59 39.98053 -110.83025 16951 ft 176 kts 170°
2026-05-07 00:59 39.96846 -110.82779 16951 ft 176 kts 171°
2026-05-07 00:59 39.95637 -110.82532 16951 ft 175 kts 171°
2026-05-07 01:00 39.94432 -110.82287 16946 ft 176 kts 171°
2026-05-07 01:00 39.93223 -110.82035 16948 ft 176 kts 171°
2026-05-07 01:00 39.92009 -110.81786 16948 ft 177 kts 170°
2026-05-07 01:00 39.90797 -110.81537 16948 ft 176 kts 171°
2026-05-07 01:01 39.89597 -110.81297 16946 ft 174 kts 171°
2026-05-07 01:01 39.88395 -110.81050 16944 ft 175 kts 170°
2026-05-07 01:01 39.87206 -110.80815 16945 ft 175 kts 171°
2026-05-07 01:01 39.85986 -110.80564 16946 ft 174 kts 171°
2026-05-07 01:02 39.84812 -110.80324 16941 ft 174 kts 170°
2026-05-07 01:02 39.83600 -110.80081 16941 ft 174 kts 170°
2026-05-07 01:02 39.82424 -110.79841 16942 ft 173 kts 170°
2026-05-07 01:02 39.81244 -110.79601 16941 ft 171 kts 170°
2026-05-07 01:03 39.80067 -110.79360 16940 ft 172 kts 170°
2026-05-07 01:03 39.78884 -110.79119 16939 ft 173 kts 170°
2026-05-07 01:03 39.77694 -110.78877 16932 ft 173 kts 170°
2026-05-07 01:03 39.76503 -110.78630 16930 ft 173 kts 169°
2026-05-07 01:04 39.75319 -110.78396 16935 ft 172 kts 170°
2026-05-07 01:04 39.74130 -110.78148 16936 ft 173 kts 169°
2026-05-07 01:04 39.72936 -110.77905 16935 ft 174 kts 170°
2026-05-07 01:04 39.71743 -110.77667 16934 ft 173 kts 170°
2026-05-07 01:05 39.70560 -110.77427 16933 ft 172 kts 169°
2026-05-07 01:05 39.69380 -110.77183 16924 ft 171 kts 171°
2026-05-07 01:05 39.68221 -110.76960 16925 ft 169 kts 169°
2026-05-07 01:05 39.67051 -110.76717 16925 ft 171 kts 170°
2026-05-07 01:06 39.65873 -110.76480 16918 ft 170 kts 170°
2026-05-07 01:06 39.64711 -110.76247 16925 ft 169 kts 170°
2026-05-07 01:06 39.63549 -110.76006 16926 ft 170 kts 170°
2026-05-07 01:06 39.62776 -110.75848 16926 ft 170 kts 170°
2026-05-07 01:07 39.61609 -110.75613 16914 ft 170 kts 170°
2026-05-07 01:07 39.60453 -110.75314 16914 ft 170 kts 157°
2026-05-07 01:07 39.59501 -110.74453 16918 ft 165 kts 133°
2026-05-07 01:07 39.58670 -110.73436 16906 ft 164 kts 129°
2026-05-07 01:08 39.57856 -110.72412 16907 ft 163 kts 129°
2026-05-07 01:08 39.57034 -110.71401 16907 ft 163 kts 130°
2026-05-07 01:08 39.56207 -110.70399 16906 ft 163 kts 130°
2026-05-07 01:08 39.55374 -110.69396 16906 ft 163 kts 130°
2026-05-07 01:09 39.54541 -110.68395 16901 ft 163 kts 130°
2026-05-07 01:09 39.53716 -110.67407 16962 ft 160 kts 130°
2026-05-07 01:09 39.52904 -110.66432 16978 ft 160 kts 130°
2026-05-07 01:09 39.52090 -110.65450 16979 ft 160 kts 130°
2026-05-07 01:10 39.51274 -110.64465 16977 ft 161 kts 130°
2026-05-07 01:10 39.50453 -110.63478 16975 ft 162 kts 130°
2026-05-07 01:10 39.49625 -110.62484 16975 ft 162 kts 130°
2026-05-07 01:10 39.48800 -110.61490 16974 ft 162 kts 130°
2026-05-07 01:11 39.47971 -110.60495 16974 ft 163 kts 130°
2026-05-07 01:11 39.47138 -110.59494 16964 ft 163 kts 130°
2026-05-07 01:11 39.46302 -110.58491 16965 ft 164 kts 130°
2026-05-07 01:11 39.45467 -110.57491 16964 ft 164 kts 130°
2026-05-07 01:12 39.44631 -110.56493 16966 ft 164 kts 130°
2026-05-07 01:12 39.43796 -110.55496 16965 ft 163 kts 130°
2026-05-07 01:12 39.42963 -110.54494 16965 ft 164 kts 130°
2026-05-07 01:12 39.42129 -110.53491 16964 ft 163 kts 130°
2026-05-07 01:13 39.41304 -110.52507 16963 ft 164 kts 130°
2026-05-07 01:13 39.40456 -110.51494 16956 ft 164 kts 130°
2026-05-07 01:13 39.39635 -110.50505 16955 ft 162 kts 130°
2026-05-07 01:13 39.38802 -110.49522 16954 ft 162 kts 130°
2026-05-07 01:14 39.37975 -110.48533 16958 ft 162 kts 130°
2026-05-07 01:14 39.37148 -110.47540 16959 ft 162 kts 130°
2026-05-07 01:14 39.36318 -110.46541 16972 ft 164 kts 130°
2026-05-07 01:14 39.35481 -110.45544 16969 ft 164 kts 130°
2026-05-07 01:15 39.34642 -110.44545 16963 ft 164 kts 130°
2026-05-07 01:15 39.33803 -110.43542 16955 ft 164 kts 130°
2026-05-07 01:15 39.32967 -110.42546 16957 ft 164 kts 130°
2026-05-07 01:15 39.32130 -110.41550 16955 ft 163 kts 130°
2026-05-07 01:16 39.31296 -110.40555 16958 ft 163 kts 130°
2026-05-07 01:16 39.30461 -110.39559 16956 ft 163 kts 130°
2026-05-07 01:16 39.29622 -110.38562 16957 ft 164 kts 130°
2026-05-07 01:16 39.28783 -110.37561 16956 ft 164 kts 130°
2026-05-07 01:17 39.27939 -110.36557 16956 ft 165 kts 130°
2026-05-07 01:17 39.27099 -110.35554 16957 ft 165 kts 130°
2026-05-07 01:17 39.26257 -110.34551 16950 ft 165 kts 130°
2026-05-07 01:17 39.25414 -110.33550 16963 ft 165 kts 130°
2026-05-07 01:18 39.24571 -110.32547 16960 ft 165 kts 130°
2026-05-07 01:18 39.23728 -110.31544 16961 ft 165 kts 130°
2026-05-07 01:18 39.22883 -110.30542 16963 ft 165 kts 130°
2026-05-07 01:18 39.22038 -110.29537 16965 ft 165 kts 130°
2026-05-07 01:19 39.21187 -110.28527 16962 ft 166 kts 130°
2026-05-07 01:19 39.20338 -110.27518 16962 ft 166 kts 130°
2026-05-07 01:19 39.19499 -110.26518 16955 ft 163 kts 130°
2026-05-07 01:19 39.18664 -110.25547 16956 ft 165 kts 131°
2026-05-07 01:20 39.17823 -110.24555 16957 ft 163 kts 130°
2026-05-07 01:20 39.16990 -110.23552 16958 ft 164 kts 130°
2026-05-07 01:20 39.16152 -110.22554 16957 ft 162 kts 129°
2026-05-07 01:20 39.15322 -110.21565 16956 ft 162 kts 130°
2026-05-07 01:21 39.14486 -110.20590 16953 ft 162 kts 131°
2026-05-07 01:21 39.13656 -110.19608 16967 ft 162 kts 130°
2026-05-07 01:21 39.12824 -110.18625 16961 ft 160 kts 130°
2026-05-07 01:21 39.12010 -110.17654 16960 ft 159 kts 130°
2026-05-07 01:22 39.11186 -110.16689 16964 ft 160 kts 130°
2026-05-07 01:22 39.10367 -110.15711 16965 ft 161 kts 130°
2026-05-07 01:22 39.09539 -110.14738 16966 ft 161 kts 130°
2026-05-07 01:22 39.08715 -110.13759 16965 ft 162 kts 129°
2026-05-07 01:23 39.07880 -110.12768 16973 ft 165 kts 129°
2026-05-07 01:23 39.07035 -110.11770 16965 ft 165 kts 129°
2026-05-07 01:23 39.06186 -110.10773 16965 ft 165 kts 129°
2026-05-07 01:23 39.05340 -110.09775 16965 ft 165 kts 129°
2026-05-07 01:24 39.04494 -110.08772 16967 ft 166 kts 129°
2026-05-07 01:24 39.03646 -110.07770 16969 ft 165 kts 129°
2026-05-07 01:24 39.02797 -110.06770 16982 ft 165 kts 129°
2026-05-07 01:24 39.01946 -110.05775 16984 ft 165 kts 129°
2026-05-07 01:25 39.01099 -110.04775 16986 ft 165 kts 129°
2026-05-07 01:25 39.00264 -110.03790 16988 ft 165 kts 129°
2026-05-07 01:25 38.99414 -110.02795 16993 ft 165 kts 129°
2026-05-07 01:25 38.98567 -110.01796 16997 ft 165 kts 129°
2026-05-07 01:26 38.97718 -110.00796 16994 ft 165 kts 129°
2026-05-07 01:26 38.96870 -109.99797 16997 ft 166 kts 129°
2026-05-07 01:26 38.96018 -109.98798 17003 ft 166 kts 129°
2026-05-07 01:26 38.95167 -109.97800 17004 ft 165 kts 129°
2026-05-07 01:27 38.94319 -109.96804 17009 ft 165 kts 129°
2026-05-07 01:27 38.93470 -109.95807 17012 ft 166 kts 129°
2026-05-07 01:27 38.92618 -109.94807 17014 ft 166 kts 129°
2026-05-07 01:27 38.91767 -109.93808 17019 ft 165 kts 129°
2026-05-07 01:28 38.90920 -109.92812 17027 ft 165 kts 129°
2026-05-07 01:28 38.90071 -109.91817 17030 ft 165 kts 129°
2026-05-07 01:28 38.89222 -109.90825 17031 ft 165 kts 129°
2026-05-07 01:28 38.88376 -109.89834 17038 ft 165 kts 129°
2026-05-07 01:29 38.87530 -109.88839 17039 ft 165 kts 129°
2026-05-07 01:29 38.86680 -109.87845 17042 ft 165 kts 129°
2026-05-07 01:29 38.85833 -109.86851 17044 ft 165 kts 129°
2026-05-07 01:29 38.84985 -109.85857 17045 ft 165 kts 129°
2026-05-07 01:30 38.84133 -109.84864 17054 ft 166 kts 129°
2026-05-07 01:30 38.83281 -109.83868 17052 ft 166 kts 129°
2026-05-07 01:30 38.82430 -109.82874 17054 ft 166 kts 129°
2026-05-07 01:30 38.81578 -109.81878 17055 ft 166 kts 129°
2026-05-07 01:31 38.80727 -109.80884 17057 ft 166 kts 129°
2026-05-07 01:31 38.79875 -109.79890 17061 ft 165 kts 129°
2026-05-07 01:31 38.79017 -109.78891 17059 ft 167 kts 129°
2026-05-07 01:31 38.78156 -109.77883 17057 ft 167 kts 129°
2026-05-07 01:32 38.77298 -109.76880 17056 ft 167 kts 129°
2026-05-07 01:32 38.76439 -109.75880 17055 ft 165 kts 129°
2026-05-07 01:32 38.75684 -109.74813 17059 ft 164 kts 108°
2026-05-07 01:32 38.75407 -109.73463 17060 ft 152 kts 88°
2026-05-07 01:33 38.75251 -109.72127 17054 ft 148 kts 86°
2026-05-07 01:33 38.75097 -109.70834 17054 ft 146 kts 86°
2026-05-07 01:33 38.74937 -109.69550 17054 ft 145 kts 86°
2026-05-07 01:33 38.74778 -109.68292 16990 ft 145 kts 86°
2026-05-07 01:34 38.74618 -109.67018 16990 ft 144 kts 86°
2026-05-07 01:34 38.74456 -109.65750 16998 ft 143 kts 87°
2026-05-07 01:34 38.74292 -109.64476 16999 ft 143 kts 86°
2026-05-07 01:34 38.74135 -109.63237 16999 ft 143 kts 86°
2026-05-07 01:35 38.73974 -109.61985 16998 ft 142 kts 86°
2026-05-07 01:35 38.73815 -109.60732 17000 ft 143 kts 86°
2026-05-07 01:35 38.73654 -109.59477 17000 ft 143 kts 86°
2026-05-07 01:35 38.73495 -109.58225 17000 ft 143 kts 86°
2026-05-07 01:36 38.73335 -109.56973 16997 ft 142 kts 86°
2026-05-07 01:36 38.73174 -109.55725 16988 ft 142 kts 86°
2026-05-07 01:36 38.73014 -109.54476 16986 ft 142 kts 86°
2026-05-07 01:36 38.72853 -109.53223 16986 ft 142 kts 86°
2026-05-07 01:37 38.72693 -109.51972 16988 ft 142 kts 86°
2026-05-07 01:37 38.72532 -109.50722 16990 ft 143 kts 86°
2026-05-07 01:37 38.72370 -109.49461 16999 ft 144 kts 87°
2026-05-07 01:37 38.72207 -109.48203 16998 ft 143 kts 86°
2026-05-07 01:38 38.72043 -109.46939 16996 ft 144 kts 87°
2026-05-07 01:38 38.71880 -109.45677 17008 ft 145 kts 86°
2026-05-07 01:38 38.71716 -109.44403 16999 ft 145 kts 87°
2026-05-07 01:38 38.71551 -109.43127 16998 ft 145 kts 87°
2026-05-07 01:39 38.71388 -109.41863 16994 ft 141 kts 87°
2026-05-07 01:39 38.71223 -109.40638 16990 ft 140 kts 87°
2026-05-07 01:39 38.71062 -109.39423 16992 ft 140 kts 86°
2026-05-07 01:39 38.70905 -109.38191 17001 ft 140 kts 86°
2026-05-07 01:40 38.70747 -109.36961 17002 ft 140 kts 86°
2026-05-07 01:40 38.70588 -109.35725 17004 ft 141 kts 86°
2026-05-07 01:40 38.70426 -109.34467 17004 ft 142 kts 86°
2026-05-07 01:40 38.70265 -109.33233 17004 ft 142 kts 86°
2026-05-07 01:41 38.70102 -109.31982 17007 ft 143 kts 86°
2026-05-07 01:41 38.69939 -109.30722 17008 ft 144 kts 87°
2026-05-07 01:41 38.69773 -109.29456 17007 ft 144 kts 87°
2026-05-07 01:41 38.69606 -109.28186 17007 ft 145 kts 87°
2026-05-07 01:42 38.69438 -109.26908 17003 ft 146 kts 87°
2026-05-07 01:42 38.69270 -109.25633 17003 ft 145 kts 87°
2026-05-07 01:42 38.69102 -109.24358 17011 ft 145 kts 87°
2026-05-07 01:42 38.68934 -109.23085 17010 ft 145 kts 87°
2026-05-07 01:43 38.68767 -109.21815 17010 ft 145 kts 87°
2026-05-07 01:43 38.68601 -109.20544 17014 ft 145 kts 87°
2026-05-07 01:43 38.68434 -109.19268 17014 ft 146 kts 87°
2026-05-07 01:43 38.68264 -109.17990 17013 ft 145 kts 87°
2026-05-07 01:44 38.68097 -109.16723 17012 ft 145 kts 87°
2026-05-07 01:44 38.67929 -109.15450 17013 ft 145 kts 87°
2026-05-07 01:44 38.67761 -109.14179 17014 ft 145 kts 87°
2026-05-07 01:44 38.67593 -109.12901 17014 ft 145 kts 87°
2026-05-07 01:45 38.67424 -109.11624 17037 ft 147 kts 87°
2026-05-07 01:45 38.67254 -109.10332 17024 ft 147 kts 88°
2026-05-07 01:45 38.67081 -109.09042 17022 ft 147 kts 87°
2026-05-07 01:45 38.66910 -109.07753 17023 ft 147 kts 88°
2026-05-07 01:46 38.66736 -109.06464 17015 ft 147 kts 87°
2026-05-07 01:46 38.66566 -109.05183 17020 ft 145 kts 87°
2026-05-07 01:46 38.66399 -109.03915 17020 ft 144 kts 86°
2026-05-07 01:46 38.66232 -109.02658 17020 ft 143 kts 86°
2026-05-07 01:47 38.66064 -109.01402 17017 ft 143 kts 86°
2026-05-07 01:47 38.65896 -109.00163 17019 ft 142 kts 86°
2026-05-07 01:47 38.65734 -108.98911 17023 ft 143 kts 86°
2026-05-07 01:47 38.65568 -108.97655 17027 ft 144 kts 87°
2026-05-07 01:48 38.65400 -108.96406 17024 ft 145 kts 87°
2026-05-07 01:48 38.65226 -108.95135 17026 ft 145 kts 87°
2026-05-07 01:48 38.65060 -108.93861 17026 ft 145 kts 87°
2026-05-07 01:48 38.64891 -108.92587 17026 ft 146 kts 87°
2026-05-07 01:49 38.64718 -108.91303 17025 ft 147 kts 87°
2026-05-07 01:49 38.64544 -108.90020 17024 ft 146 kts 87°
2026-05-07 01:49 38.64371 -108.88743 17025 ft 146 kts 87°
2026-05-07 01:49 38.64198 -108.87462 17024 ft 146 kts 87°
2026-05-07 01:50 38.64025 -108.86179 17026 ft 146 kts 87°
2026-05-07 01:50 38.63854 -108.84906 17026 ft 145 kts 87°
2026-05-07 01:50 38.63683 -108.83642 17021 ft 144 kts 87°
2026-05-07 01:50 38.63511 -108.82380 17022 ft 144 kts 87°
2026-05-07 01:51 38.63343 -108.81124 17021 ft 143 kts 87°
2026-05-07 01:51 38.63174 -108.79872 17020 ft 143 kts 87°
2026-05-07 01:51 38.63005 -108.78623 17021 ft 143 kts 87°
2026-05-07 01:51 38.62838 -108.77371 17037 ft 144 kts 87°
2026-05-07 01:52 38.62669 -108.76096 17030 ft 146 kts 88°
2026-05-07 01:52 38.62491 -108.74813 17027 ft 147 kts 88°
2026-05-07 01:52 38.62316 -108.73535 17025 ft 146 kts 88°
2026-05-07 01:52 38.62141 -108.72258 17023 ft 146 kts 88°
2026-05-07 01:53 38.62025 -108.71413 17024 ft 145 kts 87°
2026-05-07 01:53 38.61853 -108.70143 17023 ft 144 kts 87°
2026-05-07 01:53 38.61627 -108.68472 17023 ft 144 kts 88°
2026-05-07 01:53 38.61455 -108.67214 17024 ft 144 kts 88°
2026-05-07 01:54 38.61283 -108.65951 17025 ft 145 kts 88°
2026-05-07 01:54 38.61167 -108.65092 17026 ft 145 kts 88°
2026-05-07 01:54 38.60993 -108.63817 17026 ft 146 kts 88°
2026-05-07 01:54 38.60817 -108.62541 17023 ft 146 kts 88°
2026-05-07 01:55 38.60643 -108.61266 17020 ft 146 kts 88°
2026-05-07 01:55 38.60467 -108.59991 17021 ft 145 kts 88°
2026-05-07 01:55 38.60296 -108.58747 17020 ft 144 kts 88°
2026-05-07 01:55 38.60123 -108.57488 17020 ft 144 kts 87°
2026-05-07 01:56 38.59948 -108.56212 17021 ft 144 kts 88°
2026-05-07 01:56 38.59775 -108.54972 17020 ft 143 kts 87°
2026-05-07 01:56 38.59607 -108.53718 17022 ft 143 kts 87°
2026-05-07 01:56 38.59436 -108.52457 17024 ft 145 kts 88°
2026-05-07 01:57 38.59260 -108.51189 17023 ft 145 kts 88°
2026-05-07 01:57 38.59081 -108.49918 17021 ft 145 kts 87°
2026-05-07 01:57 38.58903 -108.48650 17020 ft 144 kts 86°
2026-05-07 01:57 38.58734 -108.47395 17020 ft 144 kts 87°
2026-05-07 01:58 38.58565 -108.46141 17022 ft 143 kts 87°
2026-05-07 01:58 38.58390 -108.44883 17023 ft 144 kts 88°
2026-05-07 01:58 38.58213 -108.43618 17024 ft 144 kts 88°
2026-05-07 01:58 38.58038 -108.42355 17025 ft 144 kts 88°
2026-05-07 01:59 38.57864 -108.41094 17018 ft 144 kts 88°
2026-05-07 01:59 38.57686 -108.39826 17017 ft 145 kts 88°
2026-05-07 01:59 38.57510 -108.38553 17018 ft 146 kts 88°
2026-05-07 01:59 38.57333 -108.37278 17017 ft 146 kts 88°
2026-05-07 02:00 38.57156 -108.36009 17016 ft 145 kts 88°
2026-05-07 02:00 38.56978 -108.34737 17019 ft 146 kts 88°
2026-05-07 02:00 38.56798 -108.33458 17023 ft 147 kts 88°
2026-05-07 02:00 38.56618 -108.32174 17029 ft 147 kts 88°
2026-05-07 02:01 38.56443 -108.30911 17032 ft 146 kts 88°
2026-05-07 02:01 38.56266 -108.29630 17036 ft 146 kts 88°
2026-05-07 02:01 38.56087 -108.28350 17039 ft 146 kts 88°
2026-05-07 02:01 38.55908 -108.27069 17044 ft 146 kts 88°
2026-05-07 02:02 38.55729 -108.25791 17048 ft 147 kts 88°
2026-05-07 02:02 38.55548 -108.24510 17052 ft 146 kts 88°
2026-05-07 02:02 38.55368 -108.23229 17056 ft 146 kts 88°
2026-05-07 02:02 38.55189 -108.21953 17060 ft 146 kts 88°
2026-05-07 02:03 38.55010 -108.20675 17065 ft 146 kts 88°
2026-05-07 02:03 38.54831 -108.19393 17070 ft 147 kts 88°
2026-05-07 02:03 38.54650 -108.18113 17074 ft 147 kts 88°
2026-05-07 02:03 38.54468 -108.16823 17079 ft 147 kts 88°
2026-05-07 02:04 38.54286 -108.15533 17079 ft 147 kts 88°
2026-05-07 02:04 38.54104 -108.14248 17083 ft 147 kts 88°
2026-05-07 02:04 38.53926 -108.12980 17088 ft 147 kts 88°
2026-05-07 02:04 38.53744 -108.11700 17091 ft 146 kts 88°
2026-05-07 02:05 38.53562 -108.10423 17095 ft 146 kts 88°
2026-05-07 02:05 38.53382 -108.09144 17100 ft 146 kts 88°
2026-05-07 02:05 38.53200 -108.07865 17104 ft 147 kts 88°
2026-05-07 02:05 38.53018 -108.06587 17108 ft 146 kts 88°
2026-05-07 02:06 38.52839 -108.05312 17112 ft 146 kts 88°
2026-05-07 02:06 38.52658 -108.04037 17117 ft 146 kts 88°
2026-05-07 02:06 38.52477 -108.02765 17121 ft 146 kts 88°
2026-05-07 02:06 38.52295 -108.01487 17126 ft 146 kts 88°
2026-05-07 02:07 38.52113 -108.00213 17127 ft 146 kts 88°
2026-05-07 02:07 38.51750 -107.97651 17128 ft 147 kts 88°
2026-05-07 02:07 38.51567 -107.96372 17128 ft 147 kts 88°
2026-05-07 02:08 38.51383 -107.95091 17127 ft 147 kts 88°
2026-05-07 02:08 38.51201 -107.93812 17127 ft 147 kts 88°
2026-05-07 02:08 38.51017 -107.92532 17128 ft 147 kts 88°
2026-05-07 02:08 38.50834 -107.91252 17127 ft 146 kts 88°
2026-05-07 02:09 38.50654 -107.89976 17132 ft 146 kts 86°
2026-05-07 02:09 38.50587 -107.88689 17129 ft 144 kts 83°
2026-05-07 02:09 38.50499 -107.87418 17127 ft 144 kts 82°
2026-05-07 02:09 38.50419 -107.86145 17127 ft 144 kts 82°
2026-05-07 02:10 38.50342 -107.84873 17127 ft 143 kts 82°
2026-05-07 02:10 38.50266 -107.83605 17127 ft 143 kts 82°
2026-05-07 02:10 38.50189 -107.82336 17127 ft 143 kts 82°
2026-05-07 02:10 38.50113 -107.81070 17016 ft 143 kts 82°
2026-05-07 02:11 38.50037 -107.79803 17013 ft 143 kts 82°
2026-05-07 02:11 38.49961 -107.78537 17013 ft 143 kts 82°
2026-05-07 02:11 38.49885 -107.77277 17013 ft 142 kts 82°
2026-05-07 02:11 38.49808 -107.76020 17013 ft 142 kts 82°
2026-05-07 02:12 38.49732 -107.74774 17015 ft 140 kts 82°
2026-05-07 02:12 38.49656 -107.73535 17027 ft 141 kts 82°
2026-05-07 02:12 38.49581 -107.72288 17024 ft 141 kts 82°
2026-05-07 02:12 38.49505 -107.71036 17023 ft 141 kts 82°
2026-05-07 02:13 38.49430 -107.69802 17019 ft 142 kts 82°
2026-05-07 02:13 38.49354 -107.68546 17019 ft 142 kts 82°
2026-05-07 02:13 38.49276 -107.67289 17035 ft 142 kts 82°
2026-05-07 02:13 38.49199 -107.66037 17036 ft 142 kts 82°
2026-05-07 02:14 38.49121 -107.64775 17037 ft 142 kts 82°
2026-05-07 02:14 38.49043 -107.63509 17037 ft 144 kts 82°
2026-05-07 02:14 38.48965 -107.62237 17035 ft 144 kts 82°
2026-05-07 02:14 38.48886 -107.60968 17035 ft 144 kts 82°
2026-05-07 02:15 38.48805 -107.59686 17049 ft 146 kts 83°
2026-05-07 02:15 38.48724 -107.58392 17047 ft 146 kts 83°
2026-05-07 02:15 38.48644 -107.57125 17045 ft 140 kts 82°
2026-05-07 02:15 38.48566 -107.55887 17044 ft 139 kts 82°
2026-05-07 02:16 38.48488 -107.54658 17044 ft 139 kts 82°
2026-05-07 02:16 38.48414 -107.53430 17046 ft 139 kts 81°
2026-05-07 02:16 38.48339 -107.52194 17047 ft 140 kts 82°
2026-05-07 02:16 38.48262 -107.50960 17048 ft 139 kts 82°
2026-05-07 02:17 38.48183 -107.49724 17046 ft 140 kts 82°
2026-05-07 02:17 38.48105 -107.48487 17047 ft 140 kts 82°
2026-05-07 02:17 38.48028 -107.47267 17047 ft 139 kts 82°
2026-05-07 02:17 38.47948 -107.46027 17055 ft 139 kts 82°
2026-05-07 02:18 38.47871 -107.44813 17055 ft 139 kts 82°
2026-05-07 02:18 38.47792 -107.43562 17054 ft 139 kts 82°
2026-05-07 02:18 38.47716 -107.42357 17054 ft 137 kts 82°
2026-05-07 02:18 38.47639 -107.41134 17055 ft 139 kts 82°
2026-05-07 02:19 38.47560 -107.39899 17058 ft 140 kts 82°
2026-05-07 02:19 38.47481 -107.38660 17061 ft 140 kts 82°
2026-05-07 02:19 38.47402 -107.37420 17060 ft 140 kts 82°
2026-05-07 02:19 38.47322 -107.36184 17062 ft 140 kts 82°
2026-05-07 02:20 38.47241 -107.34948 17064 ft 140 kts 82°
2026-05-07 02:20 38.47162 -107.33713 17066 ft 139 kts 82°
2026-05-07 02:20 38.47085 -107.32484 17071 ft 139 kts 82°
2026-05-07 02:20 38.47006 -107.31258 17074 ft 139 kts 82°
2026-05-07 02:21 38.46926 -107.30026 17077 ft 139 kts 82°
2026-05-07 02:21 38.46846 -107.28790 17079 ft 140 kts 82°
2026-05-07 02:21 38.46766 -107.27549 17082 ft 141 kts 82°
2026-05-07 02:21 38.46685 -107.26301 17089 ft 141 kts 82°
2026-05-07 02:22 38.46604 -107.25052 17092 ft 142 kts 82°
2026-05-07 02:22 38.46521 -107.23798 17094 ft 142 kts 82°
2026-05-07 02:22 38.46439 -107.22545 17096 ft 142 kts 82°
2026-05-07 02:22 38.46358 -107.21292 17098 ft 142 kts 82°
2026-05-07 02:23 38.46276 -107.20034 17100 ft 142 kts 82°
2026-05-07 02:23 38.46195 -107.18789 17101 ft 144 kts 82°
2026-05-07 02:23 38.46111 -107.17519 17104 ft 144 kts 82°
2026-05-07 02:23 38.46025 -107.16250 17104 ft 143 kts 82°
2026-05-07 02:24 38.45944 -107.14987 17105 ft 143 kts 82°
2026-05-07 02:24 38.45860 -107.13720 17108 ft 143 kts 82°
2026-05-07 02:24 38.45777 -107.12456 17110 ft 143 kts 82°
2026-05-07 02:24 38.45693 -107.11197 17112 ft 143 kts 82°
2026-05-07 02:25 38.45610 -107.09934 17114 ft 143 kts 82°
2026-05-07 02:25 38.45526 -107.08672 17116 ft 143 kts 83°
2026-05-07 02:25 38.45442 -107.07417 17117 ft 142 kts 83°
2026-05-07 02:25 38.45357 -107.06160 17119 ft 142 kts 82°
2026-05-07 02:26 38.45271 -107.04905 17131 ft 141 kts 82°
2026-05-07 02:26 38.45239 -107.03645 17127 ft 143 kts 70°